Theta_e
332 331 330 331 330 329 330 330 331 330 328 327 327 327 325 323 323 323 321 319 313 311 310 309 308 308 308 307 303 303 306 306 304 303 302 301 301 301 301 301 301 301 301 302 301 301 301 301 301 300 300 300 299 299 299 299 299 299 299 299 299 299 299 299 299 299 299 298 298 298 298 298 298 297
332 331 331 331 331 331 330 329 330 330 328 328 327 328 326 323 321 320 320 319 312 308 310 309 308 308 308 307 304 304 307 305 303 302 302 301 301 301 301 301 302 303 303 304 304 304 303 303 303 303 302 302 301 300 300 299 299 299 299 299 299 299 299 299 299 299 299 299 299 299 299 299 298 298
331 331 331 331 331 331 331 329 330 330 328 328 328 329 327 323 322 318 317 317 312 309 310 309 309 309 309 308 305 305 307 304 302 302 302 301 301 301 302 303 304 305 306 306 307 307 307 307 307 306 306 305 304 303 301 300 300 299 299 299 299 299 299 299 299 299 299 299 299 299 299 299 298 298
330 331 331 332 331 331 330 329 329 330 329 329 329 329 327 324 324 320 316 314 311 309 310 310 310 310 310 309 306 306 306 304 302 302 301 302 301 301 302 304 305 306 307 308 308 308 309 308 308 308 308 308 308 307 305 303 301 300 300 299 299 299 299 299 299 299 299 299 299 299 299 299 298 297
330 330 330 331 331 331 330 328 328 329 328 328 328 327 325 325 324 319 314 313 311 309 310 310 310 310 310 310 308 306 306 304 303 304 303 302 301 301 303 305 306 307 308 308 308 308 309 309 309 309 309 309 308 308 308 306 304 302 301 300 300 299 299 299 299 299 299 299 299 299 299 298 298 297
329 330 330 330 331 330 329 327 327 328 327 326 326 326 325 324 324 320 314 312 310 309 310 310 310 311 311 310 309 307 307 307 307 308 307 305 302 301 303 305 307 307 308 308 308 308 308 309 309 309 309 309 309 309 308 308 306 305 303 302 301 300 300 299 299 299 299 299 299 298 298 298 297 296
328 329 329 330 330 330 328 328 327 327 327 326 325 325 325 324 324 323 317 312 310 309 310 311 311 311 311 310 309 309 309 309 309 310 310 309 306 303 303 305 306 307 307 308 308 308 308 309 309 309 309 309 309 309 308 308 308 307 305 304 302 301 301 300 299 299 299 298 298 298 298 297 297 296
327 329 329 329 329 330 329 328 327 327 328 327 326 326 326 324 324 324 318 312 311 310 310 311 311 312 311 310 310 310 310 309 310 310 311 311 310 309 308 307 307 307 307 307 308 308 308 309 309 309 309 309 309 308 308 308 308 307 307 305 304 302 302 301 300 299 299 299 298 298 297 296 296 296
326 328 329 328 328 329 329 328 328 328 327 328 328 327 326 324 324 323 319 314 312 310 310 312 312 311 311 310 311 310 310 310 310 310 311 311 312 312 311 311 310 309 308 308 308 309 309 309 310 310 309 309 308 308 308 308 307 307 307 306 305 304 303 302 301 300 299 299 298 297 297 296 296 295
325 326 327 328 327 328 328 328 327 327 327 328 328 327 326 324 323 322 318 314 311 309 310 311 312 311 311 311 311 311 311 311 310 310 311 311 311 312 312 312 312 311 311 311 311 310 310 310 311 311 311 310 309 308 308 307 307 307 307 307 306 305 304 302 301 300 299 298 298 297 296 296 295 295
324 324 325 326 327 327 327 327 327 326 326 327 327 325 324 322 321 319 317 313 311 310 311 311 312 311 311 312 312 312 312 312 311 311 310 310 310 311 311 312 312 313 312 312 312 312 312 311 311 311 311 310 310 309 308 308 307 307 307 307 306 305 304 303 301 300 299 298 297 296 296 295 295 295
322 322 322 325 327 327 326 327 327 326 325 325 325 323 322 322 320 317 315 313 312 312 312 312 312 312 311 312 312 312 312 311 311 312 312 311 311 311 312 312 312 313 313 312 312 312 312 312 311 311 311 311 311 310 309 308 308 307 307 306 306 306 304 303 301 301 300 298 297 296 295 295 295 295
322 322 321 324 327 327 326 327 326 325 325 324 324 323 322 321 319 316 315 314 313 313 313 314 314 313 312 312 312 312 312 312 312 313 313 313 313 313 313 312 312 313 313 313 313 313 313 312 312 312 312 312 312 312 311 309 309 308 308 307 306 305 304 302 302 301 300 298 297 296 295 295 295 294
321 322 321 323 326 327 327 327 326 325 324 323 322 322 321 320 318 317 318 317 316 315 315 315 315 314 313 313 313 313 313 314 314 314 313 313 314 314 313 313 313 313 313 314 313 313 313 312 312 312 313 314 313 313 312 311 310 310 309 307 306 305 304 303 302 301 300 299 297 295 295 295 294 294
321 320 319 320 324 327 327 326 326 325 324 323 322 321 321 320 319 319 320 320 319 319 319 318 317 316 315 314 314 314 314 314 314 314 314 314 314 314 313 313 314 314 314 314 313 313 313 312 312 313 314 314 314 313 313 312 311 310 309 308 307 305 304 303 302 301 301 299 297 295 295 294 294 294
319 318 317 317 319 322 324 324 325 325 325 324 323 322 321 321 321 320 320 320 320 320 320 320 319 318 318 318 318 317 316 316 315 316 316 315 315 315 314 314 314 315 315 314 313 313 314 313 312 313 314 314 314 314 313 313 311 310 309 308 307 306 304 303 302 302 301 299 296 295 295 294 294 294
318 317 317 317 316 317 319 319 320 321 321 321 321 321 320 319 319 320 320 320 320 320 320 320 319 319 319 319 319 319 318 318 318 317 317 317 316 315 315 315 315 315 315 315 314 313 314 314 313 313 314 314 314 314 314 313 312 310 309 309 307 306 304 303 302 303 301 298 296 295 295 295 295 295
319 319 319 319 318 318 318 318 318 318 316 317 319 319 318 318 318 318 318 317 317 317 317 317 318 317 317 317 318 318 318 318 318 318 318 318 317 316 316 316 315 315 315 315 314 313 314 315 314 314 315 315 314 314 314 314 313 311 309 308 307 306 304 303 303 302 300 298 296 296 296 296 296 296
320 319 320 320 319 319 319 318 319 318 317 318 321 322 321 321 320 319 318 318 317 316 315 315 315 315 315 315 315 315 315 315 315 315 316 317 317 318 317 317 316 316 315 316 315 314 314 315 314 314 315 314 314 314 313 313 313 312 310 308 306 305 304 304 303 301 299 298 297 296 296 296 296 296
321 320 320 321 320 320 319 319 319 319 319 319 320 320 321 322 322 321 321 320 319 319 318 317 317 316 316 316 316 316 316 316 316 315 315 315 315 316 318 318 318 317 317 317 316 314 314 315 314 313 313 312 312 313 312 312 312 311 311 309 306 305 304 303 302 300 299 298 297 297 297 297 296 296
322 321 320 320 319 319 318 318 318 319 320 320 320 319 320 320 321 321 321 321 321 320 320 319 318 318 318 317 317 317 317 317 318 317 317 317 316 316 317 317 317 317 317 317 316 315 314 314 314 313 313 313 313 313 313 313 312 311 310 308 306 305 304 303 301 300 298 298 297 297 297 297 296 295
318 317 316 316 316 315 314 314 314 316 317 317 316 316 316 316 316 317 318 319 319 319 320 319 319 319 319 319 319 319 319 319 318 319 318 318 318 317 316 316 316 316 316 316 316 315 314 315 315 314 314 314 314 314 313 313 312 311 309 307 306 305 304 302 301 299 299 298 297 297 297 297 296 295
314 313 312 312 312 311 311 310 311 311 312 311 311 311 310 310 310 309 309 310 311 312 313 313 313 313 313 313 313 314 315 315 316 319 320 320 320 318 316 315 314 314 315 316 315 315 315 314 314 314 313 313 313 313 312 311 310 310 308 305 304 304 302 301 300 299 299 298 297 297 297 297 296 296
311 309 308 308 308 308 308 308 308 308 308 308 307 306 305 304 303 303 302 301 301 301 301 301 301 301 301 301 301 302 303 304 308 312 314 314 315 316 315 315 313 313 314 315 314 314 314 313 313 313 313 312 312 311 310 309 309 308 306 303 302 301 301 300 300 299 298 298 297 297 297 297 296 296
306 305 305 304 304 304 304 304 303 302 302 301 300 299 299 298 298 297 297 297 297 297 298 299 300 300 301 301 302 302 303 305 307 308 308 308 309 311 313 314 313 313 314 314 313 313 313 312 313 313 312 312 311 310 308 307 307 306 304 303 302 302 300 300 299 299 298 298 298 298 297 297 297 296
303 302 301 301 300 300 299 299 298 298 298 298 298 298 299 299 299 299 298 299 301 302 303 304 305 306 306 306 306 307 308 309 310 310 311 311 311 312 313 314 314 314 314 314 313 313 313 313 313 312 311 310 308 306 305 303 303 303 303 303 303 301 300 299 299 299 298 298 298 298 297 297 297 296
300 300 299 298 297 297 298 299 300 300 301 302 302 302 303 303 303 303 302 303 304 305 306 307 307 307 306 306 306 306 307 307 308 309 311 312 311 311 312 313 314 313 312 312 311 311 311 311 311 310 310 308 306 304 303 302 302 302 302 303 302 300 299 300 300 299 298 298 298 298 297 297 297 296
299 298 297 298 299 300 301 302 303 303 303 303 303 303 303 303 304 305 305 305 305 305 306 307 307 306 306 305 305 305 306 306 306 307 309 310 310 310 311 311 311 310 309 309 308 309 309 309 309 309 309 308 306 304 302 301 301 301 301 301 301 300 300 300 300 299 298 298 298 297 297 297 297 296
298 297 298 300 302 303 303 303 303 303 303 302 302 302 302 302 302 303 304 304 305 306 306 306 306 305 305 304 304 303 304 304 305 305 306 308 309 310 310 310 309 308 307 307 307 306 306 307 307 307 307 306 305 304 302 301 301 301 300 300 299 300 300 300 300 299 298 298 297 297 297 297 296 296
298 299 301 302 303 303 302 302 302 302 301 301 301 301 301 301 301 302 302 302 303 305 306 305 304 304 303 303 302 302 302 303 303 304 305 306 307 307 307 307 307 306 306 306 305 305 305 305 305 305 304 304 303 302 302 301 300 300 300 299 299 300 300 300 299 299 298 297 297 297 296 296 296 296
301 301 302 302 302 302 301 301 301 301 301 301 301 300 301 301 301 301 301 301 302 303 303 303 303 303 303 303 302 302 301 302 302 303 304 305 305 305 305 305 305 306 306 305 305 305 304 303 302 302 302 302 301 300 300 300 299 299 299 299 300 300 299 299 298 298 297 297 297 296 296 296 296 296
301 301 301 301 301 301 301 300 301 301 300 300 301 300 301 301 301 300 300 300 301 302 302 302 303 303 303 302 302 301 300 300 300 300 301 303 304 304 304 304 305 305 305 305 304 303 302 300 300 300 300 300 300 299 299 299 299 299 299 299 299 299 299 298 298 297 297 297 296 296 296 296 295 296
301 301 301 301 300 300 300 300 300 300 300 300 300 300 300 300 300 299 299 299 299 300 301 302 302 302 302 302 301 301 300 300 299 299 299 300 301 302 303 303 304 304 303 303 302 301 300 299 298 298 298 298 298 298 298 298 298 298 298 298 298 298 298 298 297 297 297 296 296 296 296 295 295 295
300 300 300 300 300 300 300 300 299 299 299 299 299 299 299 298 298 298 297 297 297 298 299 300 300 301 301 300 300 301 300 300 299 299 299 299 300 301 301 301 302 302 301 300 300 299 299 298 297 296 297 297 297 297 297 297 297 297 297 297 298 298 297 297 297 297 296 296 296 296 295 295 295 295
300 300 300 300 300 299 299 298 298 298 298 297 297 297 297 296 296 296 295 295 295 296 297 298 298 299 299 299 299 299 299 299 299 299 299 298 299 299 299 299 300 299 299 299 298 298 297 295 294 294 295 296 296 297 297 297 297 297 297 297 297 297 297 296 296 296 296 296 296 295 295 294 294 294
300 300 299 299 298 298 297 297 297 296 296 296 295 295 295 294 294 293 293 293 294 294 295 296 297 297 297 297 297 298 298 298 298 298 298 298 298 298 298 299 298 298 297 297 297 296 295 294 294 294 294 294 295 296 296 296 296 297 297 297 297 297 296 296 296 296 296 296 295 295 294 294 294 294
299 299 298 298 297 297 296 296 296 295 295 294 294 294 293 293 293 292 292 292 293 293 294 294 295 295 295 296 296 296 297 297 296 297 297 297 297 297 297 297 297 297 296 296 296 295 295 295 295 295 295 295 296 297 296 295 295 296 296 297 296 296 296 296 296 296 296 295 295 295 295 295 294 294
298 298 297 297 296 296 295 295 295 294 294 293 293 293 292 292 292 292 291 292 292 292 293 293 294 294 294 294 295 295 295 295 296 296 296 296 296 296 296 296 296 296 296 295 295 295 295 295 295 295 295 295 296 297 296 295 295 295 296 296 296 296 295 295 295 295 295 295 295 295 295 295 295 294
297 297 297 296 296 295 295 294 294 293 293 293 292 292 292 292 291 291 291 292 292 292 293 293 293 294 294 294 294 294 294 294 294 294 294 294 295 295 295 295 295 295 295 295 295 295 295 295 295 295 295 295 296 295 295 295 295 295 295 295 295 295 295 295 295 295 295 295 295 294 294 294 294 294
296 296 296 296 295 295 294 294 293 293 292 292 292 292 291 291 291 291 291 292 292 292 292 293 293 293 293 293 293 293 293 293 293 293 293 293 294 294 294 294 294 294 294 294 294 294 294 294 294 294 295 295 295 295 295 295 295 295 294 294 295 295 295 295 295 295 295 295 295 294 293 293 293 293
295 295 295 295 295 294 294 293 293 293 293 292 292 292 291 292 292 291 291 292 292 292 292 292 292 292 292 292 292 292 292 292 292 293 293 293 293 293 293 293 293 293 293 293 294 294 294 294 294 294 294 294 294 295 295 294 294 294 294 294 294 295 294 294 294 294 294 294 294 293 293 292 292 292
295 294 294 294 294 294 293 293 293 293 293 293 292 292 292 292 292 292 292 292 292 292 292 292 292 292 292 292 292 292 292 292 292 292 292 292 292 292 293 293 293 293 293 293 294 294 294 293 294 294 294 294 294 294 294 294 294 294 294 294 294 294 294 294 294 294 293 293 293 292 292 292 292 292
294 294 294 294 293 293 293 293 294 294 293 292 292 292 292 291 292 292 292 291 291 291 291 291 291 291 291 291 291 291 291 291 292 292 292 292 292 292 292 292 292 293 293 293 293 293 293 293 293 293 293 293 294 294 294 294 294 294 294 294 294 294 294 294 293 293 293 293 292 292 293 293 292 291
293 293 293 293 293 293 293 293 293 293 293 292 292 292 292 291 292 291 291 291 291 291 291 291 291 291 291 291 291 291 291 291 291 292 291 292 292 292 292 292 292 292 292 293 293 293 293 293 293 293 293 293 294 294 294 294 294 295 295 295 295 294 294 294 293 293 294 294 293 293 293 293 293 292
293 292 292 292 292 293 293 293 293 293 293 292 292 292 292 292 291 291 291 291 291 291 291 291 291 291 291 291 291 291 291 291 291 291 291 291 291 291 292 292 292 292 292 292 292 292 293 293 293 293 293 293 293 293 294 294 294 294 295 295 295 295 295 294 294 294 294 294 294 294 294 293 293 292
Wind_Speed
12 12 13 13 14 14 14 16 15 15 20 24 22 22 23 18 9 5 5 6 9 18 22 18 14 15 11 9 13 16 15 15 15 15 15 16 15 14 12 11 12 11 10 9 9 9 9 8 8 8 8 7 7 6 6 5 5 4 4 4 4 5 5 5 6 7 7 8 8 9 10 10 11 11
13 12 13 12 13 13 12 15 16 16 19 22 20 17 21 22 16 11 7 5 12 20 21 19 17 17 14 11 15 16 14 14 15 15 15 15 15 14 13 12 12 11 10 9 9 8 8 8 7 7 7 6 6 5 4 4 3 3 2 2 2 3 3 4 4 5 6 6 7 8 9 9 10 10
13 13 13 13 13 12 12 14 16 17 17 19 19 15 15 16 14 17 13 5 13 24 23 19 19 18 15 14 15 16 14 14 14 15 14 15 15 15 14 14 13 12 11 9 9 8 7 7 6 6 5 5 4 4 3 2 2 1 1 0 1 1 1 2 3 4 4 5 6 7 8 8 9 10
12 14 14 14 14 12 13 14 16 17 16 17 19 16 14 11 6 15 20 11 11 22 24 21 19 17 17 15 16 16 15 14 14 14 14 14 16 16 16 15 14 13 12 10 10 8 7 6 5 4 4 3 3 2 1 1 0 1 1 1 1 1 2 2 2 3 4 4 5 6 7 8 9 10
12 13 13 14 14 12 12 15 16 17 15 15 17 15 15 11 5 13 24 17 12 18 22 21 20 18 18 16 16 17 17 17 16 14 13 14 15 16 17 16 15 14 13 12 11 9 8 7 6 5 4 3 2 1 1 2 2 3 3 3 3 3 3 3 3 4 4 5 6 7 8 9 10 10
11 11 11 14 14 12 12 14 15 16 15 14 16 16 15 12 7 12 21 19 16 18 21 22 22 21 19 17 17 19 18 17 18 16 14 14 15 16 16 16 16 15 15 14 12 11 10 8 7 7 6 6 5 5 4 4 5 5 5 5 5 5 5 5 5 5 5 6 7 8 9 10 11 11
12 10 10 13 14 12 11 13 13 14 15 14 16 16 15 15 9 9 17 19 19 21 22 24 25 23 20 17 17 18 17 16 17 17 16 15 15 16 17 17 17 17 16 16 14 13 12 11 10 10 10 9 9 8 8 8 7 7 7 8 8 8 7 7 6 6 7 7 8 8 9 10 11 11
13 11 11 13 14 13 12 12 12 13 13 13 15 16 15 16 11 9 17 22 22 24 23 24 26 24 21 18 17 18 18 17 17 17 16 16 17 17 18 19 19 19 19 18 17 16 15 14 13 13 13 13 12 12 11 11 10 10 10 10 10 10 9 9 8 8 8 8 9 9 11 11 12 12
13 11 11 12 13 14 13 12 11 12 13 12 14 14 15 17 13 10 17 22 23 27 27 25 25 23 21 20 19 21 21 20 20 20 19 19 18 19 20 20 20 19 19 20 20 19 19 18 17 16 16 16 16 15 15 14 14 13 13 13 13 12 11 11 10 10 9 9 10 11 12 13 12 12
12 9 8 8 10 13 14 13 11 12 13 14 14 13 15 16 13 12 19 23 24 27 28 27 26 24 23 21 21 23 24 23 23 24 24 23 21 21 22 22 20 19 20 21 22 23 23 22 20 19 18 18 18 18 18 18 17 17 16 16 15 14 14 13 12 11 10 10 11 12 13 13 12 11
10 7 5 5 8 11 12 13 10 10 13 15 14 13 14 13 10 15 23 25 25 26 25 25 25 25 24 22 22 24 26 25 24 24 26 26 25 25 25 26 25 24 24 24 24 25 25 25 23 21 20 20 21 21 21 21 21 20 20 19 17 16 16 15 14 12 10 10 12 12 12 12 11 10
9 6 4 4 6 9 12 12 9 8 12 14 11 10 12 11 11 19 25 24 24 25 23 22 23 25 25 23 22 21 25 27 25 25 27 27 27 26 26 28 28 28 28 27 27 27 27 27 26 24 23 23 23 23 24 24 24 23 22 21 20 19 18 17 15 12 11 12 12 12 11 10 10 9
7 7 6 5 6 9 10 10 7 6 9 10 7 6 9 12 14 19 21 22 24 24 22 21 21 22 24 24 22 20 24 28 27 27 29 28 27 26 27 29 30 31 32 30 30 30 28 28 28 27 27 26 25 24 24 24 24 23 23 23 21 20 19 18 15 13 12 12 11 11 10 10 10 10
9 8 8 8 8 9 9 8 7 7 7 6 6 6 7 9 12 13 12 14 19 19 17 18 18 19 22 25 25 23 24 25 26 28 30 30 28 26 26 27 29 32 33 32 32 32 30 30 30 30 30 28 26 25 24 24 23 22 22 22 22 21 20 18 16 14 13 11 11 10 10 10 10 10
11 10 9 9 8 8 8 7 6 6 6 5 5 6 7 7 8 8 7 6 7 7 7 8 10 13 17 21 24 26 26 24 23 23 27 31 31 27 23 21 23 28 31 32 33 32 31 31 33 33 32 31 28 27 25 23 22 21 21 21 22 21 20 19 17 15 12 11 10 10 10 10 10 11
12 12 12 11 10 9 7 7 6 5 4 3 3 3 4 3 3 3 2 1 1 0 1 1 1 3 5 8 12 17 20 21 20 18 19 25 28 28 26 24 23 24 26 29 33 33 32 32 34 35 33 32 30 27 25 24 22 22 21 22 22 22 21 19 17 14 11 10 9 9 9 10 10 11
12 13 15 14 12 10 8 7 6 5 3 2 2 1 1 2 2 2 4 4 5 6 7 7 6 4 4 5 5 4 6 11 15 18 22 26 28 27 26 26 26 24 23 26 32 34 33 33 35 36 35 33 31 28 25 24 24 23 22 22 23 22 21 19 17 14 11 9 8 8 9 9 9 9
11 12 14 14 12 9 8 6 5 5 4 3 2 1 1 1 1 2 3 5 7 9 10 12 13 12 11 12 11 9 9 11 12 14 18 21 23 25 26 28 29 26 24 25 27 29 31 34 36 37 36 34 32 28 25 25 25 24 24 23 24 23 21 20 17 13 10 7 6 7 6 6 5 7
14 12 13 14 12 8 7 6 5 5 5 4 3 3 3 2 1 1 2 4 7 9 10 11 13 14 13 13 14 13 15 16 16 16 16 16 17 20 22 25 26 25 26 26 25 24 26 29 33 35 35 34 33 30 26 25 26 26 25 24 24 23 22 20 16 12 9 7 6 5 3 2 5 7
15 14 12 12 11 8 8 7 6 6 5 5 5 4 3 3 1 1 2 4 6 7 9 10 11 13 13 13 14 14 15 16 18 19 20 19 20 20 20 21 23 24 23 20 20 18 15 15 20 23 24 25 26 26 25 26 27 28 28 25 24 23 21 19 15 11 8 6 5 3 1 2 6 7
14 13 11 10 10 8 8 8 6 4 3 2 3 1 0 1 1 1 3 4 5 6 7 8 9 12 13 14 16 16 17 18 18 20 21 21 21 19 16 15 18 19 16 14 15 16 13 12 15 15 15 16 18 20 23 27 29 31 30 26 23 22 21 18 14 11 8 6 5 3 1 3 5 6
13 12 10 9 8 8 8 7 5 4 3 3 4 4 4 5 5 6 7 8 9 10 10 10 11 13 14 16 17 18 19 20 20 22 23 23 23 21 16 15 17 21 22 20 17 17 20 20 19 16 15 16 20 24 27 29 31 33 30 26 23 22 21 17 14 11 9 7 6 3 2 3 4 5
12 12 11 10 9 8 8 7 7 7 6 7 7 8 9 10 10 11 13 14 16 17 17 17 18 18 18 19 20 20 21 21 21 21 22 22 22 21 20 20 19 17 19 21 17 16 19 20 20 20 16 13 16 23 27 28 32 32 29 27 25 23 20 16 13 11 9 8 6 5 3 3 3 4
11 11 11 11 10 8 8 8 8 9 9 10 10 11 12 13 14 15 16 16 16 18 19 19 20 21 21 21 21 21 21 21 20 20 21 22 22 20 20 20 18 16 18 22 20 18 19 21 27 30 24 14 10 14 18 21 27 29 29 28 26 22 17 15 14 12 10 9 7 6 5 3 3 4
9 10 10 10 9 9 10 10 11 12 11 11 11 11 11 11 12 14 14 14 13 13 13 13 14 15 16 16 16 17 17 17 17 18 19 21 23 24 24 22 22 23 25 25 22 20 20 21 24 24 20 15 12 12 14 17 22 27 28 26 22 18 16 17 16 13 11 10 9 8 7 5 3 3
8 10 10 10 10 11 11 11 11 11 10 9 9 9 9 10 10 11 11 11 10 10 10 11 12 13 14 15 16 16 17 17 17 17 18 18 19 21 23 22 22 24 25 22 21 20 18 16 16 14 12 11 10 9 9 10 14 20 22 21 18 16 17 18 16 13 11 11 10 10 8 5 3 4
6 8 9 9 9 9 10 10 11 11 12 13 13 13 13 13 13 12 11 10 10 10 10 10 11 13 14 16 17 18 19 20 20 19 19 19 18 18 18 18 18 20 20 18 17 17 15 14 14 12 10 7 4 4 4 5 8 14 18 19 18 16 17 18 15 13 12 11 10 10 8 6 5 5
8 8 8 9 10 11 12 12 12 13 14 15 15 15 15 15 16 16 14 12 12 12 11 9 9 11 13 15 16 18 19 20 20 19 20 19 19 18 16 14 14 14 13 12 11 11 11 11 12 12 12 11 8 7 7 6 8 13 16 16 16 17 18 17 15 14 13 12 11 10 8 7 7 7
9 9 9 11 12 13 13 13 13 14 15 15 15 15 15 16 17 18 17 16 15 13 9 8 9 11 14 15 17 18 18 19 19 19 19 18 17 15 13 11 11 10 10 10 10 8 8 9 11 12 13 14 12 11 12 10 11 13 15 15 17 18 19 18 16 14 14 13 12 9 7 7 7 7
11 11 12 12 13 14 14 14 14 15 15 15 15 15 15 15 16 17 17 18 17 12 9 11 12 13 15 16 16 17 17 17 18 19 18 17 15 13 11 10 9 9 9 10 11 11 10 9 9 9 10 10 10 11 12 12 12 12 13 16 17 15 15 16 15 14 14 13 11 8 7 6 5 5
15 15 14 13 14 15 16 16 16 15 15 16 16 17 16 16 17 17 16 16 16 14 12 13 14 13 14 15 16 17 17 17 18 19 18 16 16 14 12 11 9 9 10 11 12 13 12 9 8 7 8 9 10 10 10 12 13 12 12 14 16 13 11 12 13 14 15 13 12 9 7 4 2 4
17 16 16 17 18 18 17 17 16 16 16 16 17 17 16 16 16 16 16 16 17 17 15 13 13 14 15 14 14 16 18 19 21 23 21 18 16 15 13 13 12 10 11 12 12 13 11 9 8 7 7 8 9 10 10 10 11 11 12 13 14 13 11 12 15 16 15 13 11 8 6 3 2 3
17 18 19 20 20 20 19 19 18 18 17 16 16 17 17 17 17 18 18 19 19 19 17 14 14 14 13 13 13 14 16 18 21 23 22 20 17 15 13 15 15 13 11 11 10 10 9 8 7 6 6 6 6 8 8 8 8 9 10 11 11 10 10 13 15 14 12 10 7 5 4 1 2 4
18 19 20 20 21 21 21 21 20 20 19 18 18 17 17 18 18 19 20 20 20 18 15 14 13 12 11 11 12 12 13 15 17 19 19 19 17 15 14 13 13 11 9 8 7 7 7 7 6 5 5 6 6 6 7 7 7 8 9 9 8 8 11 13 14 11 9 7 4 3 2 1 1 7
18 19 20 21 21 20 21 21 21 20 20 20 19 18 18 18 19 20 21 21 20 16 13 11 11 11 12 12 12 11 11 13 15 16 17 18 17 15 13 11 7 6 6 5 6 6 5 4 5 5 6 7 7 6 6 7 6 6 6 6 7 10 13 13 11 9 7 4 1 1 2 3 5 10
20 19 21 22 21 21 21 20 20 20 19 19 19 18 19 19 20 20 20 19 17 14 12 11 12 13 14 14 13 12 12 12 14 15 16 17 16 14 13 9 5 4 4 3 4 5 4 3 4 5 4 4 4 4 5 7 6 4 5 8 9 12 13 12 9 7 4 2 2 2 3 2 5 9
20 19 20 21 20 20 20 19 19 19 19 18 18 19 20 20 20 20 20 19 17 17 16 14 14 14 14 14 14 13 12 12 12 13 14 15 13 11 9 6 3 4 3 1 0 0 1 0 1 3 3 3 2 2 2 4 4 3 5 9 10 10 11 11 8 5 3 2 1 2 4 5 6 9
19 18 19 19 19 18 18 18 18 18 19 19 18 18 19 19 19 19 19 19 19 18 18 18 17 16 16 15 14 14 13 12 12 11 11 11 10 7 4 2 5 5 5 5 4 3 2 1 1 2 4 5 3 2 1 3 4 3 3 4 5 6 7 7 5 4 4 2 2 2 4 7 9 9
17 16 16 17 17 16 17 17 17 17 18 18 18 18 17 17 17 18 19 19 19 19 20 20 20 18 17 16 15 13 12 12 12 11 10 9 8 7 6 6 7 7 7 7 7 6 5 5 5 3 2 4 4 3 3 4 5 5 4 3 4 4 4 5 5 4 4 2 2 3 1 2 4 6
16 15 15 15 15 16 16 16 16 16 16 16 16 16 17 16 16 18 19 19 19 19 19 19 18 17 16 15 14 12 12 12 11 10 10 10 10 9 8 7 6 6 7 8 8 8 8 8 7 6 5 5 5 4 3 3 4 6 5 4 5 5 4 5 6 4 3 2 0 3 4 2 1 4
17 17 16 14 13 13 13 14 13 13 14 15 16 16 17 17 17 17 18 17 16 16 15 15 15 14 14 14 13 12 13 13 12 10 10 11 11 9 8 8 7 6 5 6 5 5 6 6 5 3 2 2 2 2 1 1 3 4 4 5 6 6 4 4 4 4 3 3 2 1 3 2 1 3
15 15 15 14 12 11 11 11 11 11 11 13 15 16 17 17 16 15 14 12 11 12 12 12 13 13 13 13 13 13 14 14 13 12 11 11 11 10 9 10 10 8 5 4 4 4 5 5 4 3 2 2 1 1 2 0 3 5 6 6 7 7 5 2 2 3 3 3 3 3 2 1 1 1
12 12 11 11 10 9 8 8 10 9 10 12 13 13 15 15 13 12 11 10 10 11 11 11 11 11 11 12 12 12 13 13 13 12 12 12 11 11 10 10 10 9 7 5 4 4 5 5 4 3 3 1 1 2 2 1 0 3 6 7 6 6 5 3 1 1 2 2 3 4 2 1 0 1
9 8 7 7 7 7 8 10 10 9 9 11 11 10 10 11 10 10 11 11 11 12 13 13 12 12 11 11 11 12 12 12 11 11 11 11 11 10 10 9 8 8 8 7 6 5 5 5 5 4 3 2 1 1 2 2 2 2 4 6 6 5 5 4 3 3 2 2 3 3 3 2 2 2
7 6 5 6 7 7 10 13 12 9 7 7 6 5 5 7 8 9 9 10 11 12 13 14 14 13 13 12 12 12 12 12 12 12 11 11 11 11 10 10 9 8 8 8 8 8 8 8 7 5 4 3 3 3 4 3 1 1 2 3 4 4 4 4 4 5 4 3 3 4 5 4 4 3
Wind_Direction
187 190 187 185 184 184 184 183 184 184 178 174 175 179 179 173 160 150 178 182 159 162 168 166 172 188 187 179 183 185 184 180 175 175 173 169 166 164 165 163 160 158 152 146 138 129 124 118 113 109 103 100 98 97 98 97 98 99 97 93 88 81 74 66 61 58 52 45 40 36 32 29 25 22
190 196 190 187 188 186 187 186 186 187 184 182 183 186 186 182 172 157 160 176 160 160 170 176 178 185 187 185 184 185 187 184 180 180 178 177 175 172 173 172 167 164 159 152 145 136 130 125 117 112 104 99 96 93 95 95 96 101 97 95 87 72 66 57 45 43 39 32 28 22 17 14 11 9
195 201 193 190 192 194 193 188 187 189 190 192 193 192 188 185 180 171 160 149 168 167 171 181 187 188 186 183 184 185 189 189 184 185 185 182 182 181 179 178 176 172 168 163 157 150 144 139 130 123 114 104 99 91 91 96 96 104 94 74 56 33 30 30 23 21 18 13 9 4 359 356 355 355
195 200 197 193 195 200 200 193 190 192 194 199 199 200 195 184 182 182 170 147 163 175 178 182 186 188 183 180 185 187 188 191 189 189 191 190 189 189 187 184 183 181 180 178 175 170 167 162 156 151 140 127 117 97 78 64 347 292 286 291 289 299 311 329 340 347 348 346 346 342 340 340 340 342
190 197 197 194 196 202 201 195 196 198 196 198 200 205 202 187 172 180 170 150 144 170 181 184 183 185 183 182 190 190 187 190 190 187 192 200 199 195 194 192 192 193 193 193 193 193 193 194 195 196 196 197 199 210 243 270 282 285 286 287 287 287 289 298 307 314 320 322 325 326 327 329 330 334
187 193 192 192 197 202 199 194 197 199 192 190 197 204 206 198 182 176 172 155 142 158 174 179 178 182 187 187 189 191 191 191 191 191 195 204 209 205 204 204 204 205 206 207 209 210 213 219 224 231 236 238 241 244 250 259 267 274 280 282 283 283 283 289 295 300 307 310 314 317 321 324 325 328
183 186 184 187 193 196 196 195 197 198 191 185 190 195 199 202 197 186 182 169 154 158 169 176 177 179 187 194 191 192 197 197 196 200 202 204 210 213 216 219 220 220 221 222 222 223 227 232 238 246 251 253 255 254 254 259 264 268 273 276 277 278 280 283 287 291 297 302 307 312 315 320 323 324
182 177 179 185 191 192 194 198 200 199 192 186 188 192 196 201 204 196 189 184 172 164 167 178 183 182 187 198 198 195 199 203 204 208 211 212 217 223 227 231 232 233 234 233 231 231 234 238 244 250 256 259 260 259 259 261 263 266 268 270 273 277 280 281 284 289 293 297 303 309 315 320 323 323
176 172 178 186 192 193 195 198 201 204 200 193 191 195 199 202 210 208 196 192 183 173 171 178 184 185 188 195 202 202 200 200 205 211 216 220 225 231 235 240 242 239 237 236 236 238 240 243 246 251 255 259 260 261 263 263 264 265 266 268 269 273 277 280 283 286 288 293 301 309 315 319 319 318
166 168 173 182 191 197 197 193 196 207 208 203 200 205 207 207 219 221 201 191 182 177 177 180 184 188 189 191 201 208 207 203 204 209 216 224 230 233 235 240 243 240 236 236 238 241 242 243 246 251 255 259 262 263 264 264 265 265 265 266 267 270 273 275 277 279 283 293 302 307 309 309 308 307
149 147 151 173 192 197 190 182 189 209 208 204 206 208 203 204 220 213 196 185 179 178 178 178 184 192 194 194 200 209 212 211 209 209 212 219 228 232 235 237 239 239 239 241 243 244 244 244 246 251 255 258 261 264 265 264 265 265 264 265 265 266 268 269 270 273 281 290 295 297 299 298 298 299
131 124 123 148 178 186 183 180 187 204 203 203 209 210 206 216 214 193 184 183 184 184 183 181 188 197 200 201 204 205 204 206 211 213 211 216 224 227 233 238 239 240 241 242 244 242 240 240 242 247 251 256 260 262 263 263 263 263 263 263 262 262 263 264 265 269 275 282 287 291 294 295 298 302
130 126 115 117 148 171 178 179 175 172 186 196 196 198 212 220 205 182 177 186 191 190 191 191 191 195 200 205 208 202 199 205 217 221 218 221 225 225 230 236 239 241 242 241 241 239 237 238 241 246 251 257 260 260 260 259 259 261 262 261 260 259 259 259 260 263 267 276 286 292 296 300 303 308
135 128 114 111 137 162 166 162 157 152 163 167 147 147 167 176 174 163 157 175 185 188 195 200 198 198 201 206 209 209 209 215 223 224 221 224 229 229 230 234 237 239 240 240 239 239 239 239 241 246 251 255 256 255 255 255 255 256 258 259 257 255 255 254 254 256 262 276 290 296 301 306 310 312
140 130 121 115 126 152 164 163 163 164 165 152 129 134 146 144 149 148 128 128 154 164 173 189 201 207 208 210 214 219 222 222 223 224 225 228 230 229 229 233 236 236 237 238 239 243 244 241 241 245 250 253 252 251 253 254 254 253 252 252 252 250 249 249 248 250 259 279 293 299 306 311 312 314
148 133 123 116 116 129 146 156 164 173 179 177 153 132 140 144 147 162 158 104 47 27 54 101 181 207 216 221 223 227 231 233 236 241 243 239 234 230 229 230 233 237 237 235 236 244 248 246 244 245 249 251 251 252 256 255 253 251 249 248 246 244 243 242 241 245 260 282 295 301 309 311 311 314
144 136 127 122 122 125 131 136 147 160 161 175 201 190 159 192 223 246 255 271 284 290 296 297 293 288 282 283 279 262 253 253 253 255 256 253 245 237 234 235 241 248 245 234 233 239 245 248 246 247 252 253 251 253 257 257 255 251 246 244 242 238 238 236 235 242 259 278 290 297 303 306 312 322
120 133 138 137 135 133 135 134 141 159 154 127 111 84 52 18 320 299 285 282 282 285 288 289 289 290 290 288 285 284 284 281 275 268 265 261 256 252 251 252 253 252 249 244 237 234 241 245 244 246 253 254 252 252 254 257 259 254 246 242 237 233 232 230 231 240 254 266 278 289 295 305 332 347
105 122 140 143 137 129 127 123 122 145 159 150 120 99 80 51 359 316 299 287 280 280 284 288 289 290 291 288 283 279 277 276 278 280 279 278 277 276 272 267 262 257 255 253 242 236 245 247 241 244 251 250 250 250 248 250 256 255 250 242 234 229 225 225 229 236 247 257 266 273 280 335 18 17
105 114 123 126 122 113 103 96 95 111 136 150 143 130 109 80 48 265 254 268 270 270 271 275 279 281 282 282 281 280 279 279 279 280 279 277 278 279 275 271 268 263 260 256 244 246 266 259 244 250 252 247 249 251 249 250 251 251 250 241 229 223 220 219 224 229 237 244 243 242 229 55 37 40
109 107 104 104 104 98 88 78 75 84 103 125 124 121 98 33 332 260 242 249 257 266 270 271 274 277 280 283 284 284 287 291 293 292 290 287 285 284 280 277 276 273 272 266 250 253 273 267 249 251 252 246 250 256 260 259 251 245 245 237 226 220 215 214 220 225 229 231 222 210 155 73 49 62
104 101 95 90 84 78 71 61 51 45 30 18 17 1 339 328 316 306 299 288 282 281 282 281 282 283 285 288 289 290 291 296 301 303 302 299 296 292 286 283 288 288 286 284 273 264 267 262 251 249 257 261 264 267 270 263 248 240 237 232 224 217 211 211 217 220 221 220 210 194 152 95 68 81
93 89 81 75 69 62 55 46 35 28 21 12 7 357 346 339 330 325 322 315 308 303 300 299 298 297 297 298 298 298 296 298 304 308 309 307 300 291 282 281 287 288 285 285 280 265 262 264 265 267 272 279 277 273 266 251 239 235 231 224 217 212 207 209 215 216 216 213 200 185 171 132 104 110
86 78 67 60 52 42 33 25 17 13 8 1 354 346 338 334 328 323 322 321 319 316 312 311 309 307 306 307 308 307 305 305 306 306 306 307 303 293 286 283 278 272 276 283 281 270 265 272 277 275 269 261 262 266 261 247 237 232 225 216 210 206 206 212 213 210 208 202 191 189 188 160 134 144
72 56 44 35 24 13 7 2 359 356 352 349 346 340 334 331 326 324 325 326 327 327 324 325 326 325 325 326 327 327 327 328 326 318 309 307 303 296 291 287 275 269 277 283 279 274 272 269 270 270 264 254 251 255 260 257 243 228 217 211 210 211 216 218 213 206 200 194 195 204 201 177 163 177
52 35 27 17 6 0 1 3 4 6 11 17 17 11 4 355 347 344 347 350 354 1 3 2 0 358 356 355 353 350 346 345 343 336 326 319 312 303 294 287 276 271 278 281 273 272 273 262 256 264 271 266 261 254 250 249 236 222 213 211 216 221 224 224 218 208 200 196 203 209 198 176 187 212
37 25 23 21 20 23 32 41 44 45 46 43 37 30 22 16 11 5 1 5 13 15 11 7 10 8 1 353 349 343 338 337 339 340 338 332 325 317 304 288 276 272 274 277 275 276 275 261 252 262 268 257 232 207 214 229 226 216 212 215 221 224 226 228 223 213 207 205 204 202 190 182 207 228
44 32 33 46 59 63 63 62 57 52 49 45 42 39 34 31 28 22 16 14 8 0 358 4 11 8 358 348 344 338 332 330 329 333 338 335 324 317 307 286 272 267 268 273 280 284 277 260 251 254 257 254 239 215 206 202 197 196 197 208 222 226 223 222 219 214 211 206 199 195 188 190 209 224
45 44 59 73 74 68 63 61 59 56 54 51 47 41 35 32 31 29 26 20 10 2 7 16 10 359 352 347 343 336 330 326 325 329 338 338 318 298 285 272 264 263 270 278 285 291 288 273 264 262 261 260 250 227 210 195 185 190 197 208 221 225 219 215 217 217 212 203 197 194 186 189 202 213
59 68 77 75 68 65 63 61 58 55 49 43 37 31 28 28 28 26 24 20 18 16 12 2 354 349 347 344 341 339 336 334 333 334 339 339 319 289 268 263 266 271 282 293 300 306 307 299 288 277 260 242 224 208 200 191 184 193 208 213 214 213 211 213 217 215 206 192 180 177 176 183 206 224
67 69 69 65 66 74 73 65 59 54 48 42 39 37 35 35 33 30 27 24 23 17 2 347 342 343 346 346 347 350 351 349 346 343 340 336 325 306 283 270 271 277 287 299 307 308 305 304 297 281 253 229 212 197 190 184 176 173 180 189 190 189 194 201 198 194 190 180 168 168 176 188 243 272
64 64 66 67 70 72 69 63 58 53 48 44 42 38 33 31 30 27 25 24 22 18 11 359 349 348 352 353 354 354 353 352 350 346 343 340 334 321 295 273 266 272 280 285 290 290 290 293 293 281 261 243 228 213 203 194 189 186 180 180 186 193 201 198 186 179 180 179 174 178 191 210 301 277
64 64 63 62 59 57 56 56 53 49 45 42 38 33 28 23 18 15 15 18 18 17 17 13 3 356 354 353 351 349 347 345 345 343 341 342 341 334 310 280 266 266 268 266 266 274 286 293 287 270 252 239 226 217 211 201 197 200 193 184 189 200 204 196 186 180 181 182 179 189 207 253 333 235
59 57 56 55 55 57 57 56 53 49 45 40 34 29 24 19 14 9 7 7 6 5 8 11 8 1 355 353 349 343 340 340 341 340 341 341 341 338 326 300 275 263 259 257 264 281 293 289 272 249 230 214 195 191 200 196 188 194 198 202 208 200 184 179 176 172 173 176 170 174 175 100 127 193
58 55 57 58 57 56 55 53 49 45 41 38 33 27 21 17 13 8 4 2 359 358 360 2 1 356 354 354 352 345 338 336 336 337 339 342 343 337 328 317 291 258 250 260 280 288 284 263 242 227 221 214 197 185 189 187 180 181 188 199 199 178 165 164 163 155 150 145 113 147 151 131 170 190
62 60 59 57 54 52 51 49 45 43 41 38 33 27 22 19 17 14 12 9 8 10 10 2 353 350 348 347 347 346 340 335 336 338 339 343 345 337 324 314 289 245 242 264 284 273 257 246 234 226 231 226 209 203 195 188 189 180 149 145 154 158 156 154 151 147 138 99 87 163 181 181 191 199
60 59 57 56 54 53 52 47 41 40 37 33 30 29 26 24 20 16 14 15 18 20 18 11 2 356 352 349 349 349 345 340 341 343 343 344 344 334 321 306 247 211 206 178 88 199 224 279 250 247 260 259 250 267 219 179 186 179 139 133 136 143 150 152 148 142 132 105 122 226 241 252 238 226
56 54 55 56 55 53 49 43 38 36 32 29 30 30 26 24 20 16 16 21 24 22 21 20 17 11 6 5 3 0 357 355 355 355 356 356 355 352 360 85 124 130 123 107 97 93 76 36 339 264 249 227 217 252 207 162 159 144 137 144 144 145 153 159 154 138 127 106 23 309 268 261 253 241
57 58 59 57 54 51 47 40 35 34 34 35 36 32 27 24 21 20 23 26 25 23 23 23 21 18 17 18 18 14 14 17 20 21 22 28 36 44 60 82 95 97 86 74 68 67 66 67 71 77 126 151 132 99 101 135 146 144 150 181 187 174 173 176 167 155 150 134 56 48 64 246 239 222
65 69 66 61 57 53 48 44 41 42 44 43 39 34 31 30 28 29 31 29 26 26 27 26 25 27 29 30 30 30 33 36 39 41 44 48 49 50 55 66 75 81 76 66 60 58 57 57 61 70 86 100 102 97 100 128 151 155 161 179 185 179 181 189 188 182 182 194 156 75 84 78 213 218
68 70 65 62 57 51 51 52 51 51 49 44 38 35 35 34 33 34 33 30 29 31 33 34 37 40 43 44 44 45 45 44 43 46 49 47 43 43 51 58 60 67 77 73 63 50 41 33 25 25 53 76 99 113 114 182 192 182 181 192 194 190 189 201 216 225 231 241 247 133 98 62 351 247
64 68 68 66 60 58 64 61 50 48 48 40 34 35 35 33 34 35 34 34 39 44 47 49 51 52 53 53 52 51 51 48 45 46 48 48 48 51 54 51 45 42 49 62 56 33 23 20 13 356 330 302 265 107 86 330 238 220 210 203 200 200 203 225 255 249 248 247 213 182 156 58 44 176
58 64 67 68 69 74 71 48 37 48 53 40 31 31 32 32 39 45 44 44 49 51 50 50 51 54 54 51 49 49 48 45 44 46 45 44 46 48 47 44 40 35 31 32 24 3 353 352 355 358 355 352 136 121 87 49 274 215 211 208 201 196 202 227 248 196 183 199 194 191 211 307 6 161
58 60 62 77 91 85 58 41 44 61 60 43 34 33 34 37 48 55 53 51 50 48 45 44 44 45 44 43 43 44 42 40 40 40 40 38 35 32 30 28 26 24 22 15 3 351 344 339 338 343 351 359 358 336 354 24 59 140 189 197 195 187 187 199 216 210 212 246 245 236 245 269 288 308
60 57 73 108 111 81 56 54 58 64 61 51 47 51 51 52 55 51 46 45 43 40 40 41 41 41 40 39 38 38 37 38 38 35 35 34 28 25 26 24 17 15 15 8 360 354 349 346 347 344 337 332 321 310 309 313 330 112 146 169 183 192 194 207 243 267 275 280 271 259 253 255 266 285